Showing default

LEO 1, 43113

Orbit data source: Space-Track

LEO 1, 43113 is a payload satellite owned by Telesat (Loral) (US) in SSO that was launched on Fri, 12 Jan 2018 UTC via a PSLV-XL launch vehicle from the Sirharikota (SRI). Payload-class satellites include a variety of spacecraft equipped with specific instruments for various scientific and technological missions. These include communications satellites like Starlink; space stations such as the ISS; scientific satellites like the Hubble; Earth observation satellites from companies like Planet Labs, Umbra, and HawkEye 360; GPS; miniature CubeSats for education and research; and military/defense satellites.

Loading next visibility...
Identifier
43113, 2018-004C
Orbit
SSO
Country
Flag of USUS
Related business
Manufacturer
SSTL (Astrium)
Mission
Partially operational Commercial Communications
Bus & Motor
SSTL-42, Unknown motor
Mass
~100 kg wet, ~100 kg dry
Launch date (UTC)
2018-01-12 (8 years ago)
Launch vehicle
PSLV-XL
Launch site
Sirharikota (SRI)
Object type
Payload
Rocket body
Debris
Shape & HBR
Box + 1 Dish, 0.5 m
Radar Cross Section
0.735 m², Medium (>0.1 m² and < 1m²)

Expand to show TLE details & history
Last TLE update: 12 hours ago

TLE from 12 hours ago
0 LEO 1
1 43113U 18004C   25309.27017163  .00004207  00000-0  29719-3 0  9995
2 43113  99.2546 193.4539 0357480  46.0002 317.0082 14.66003670404655
Epoch: 2025-11-05T06:29Z
TLE epoch observation values (Epoch: 2025-11-05T06:29:02.828Z)
Latitude
-0.00002°
Longitude
51.44687°
Altitude
496.742 km
Speed
7.713 km/s
True Right ascension
12h 53m 48s
True Declination
0° 00' 00"
Sunlit
Object was in daylight at epoch
Visualization orbit readout
Latitude
Unknown
Longitude
Unknown
Altitude
Unknown
Speed
Unknown
Apparent Right ascension
Unknown
Apparent Declination
Unknown
Sunlit
N/A
Visualization observer readout
Local Sidereal Time
14:00:32
Azimuth
Unknown
Elevation
Unknown
Doppler factor
Unknown
Orbital elements
Apogee altitude
922.966 km
Perigee altitude
418.983 km
Semi-major axis
7,049.111 km
Eccentricity
0.03575
Inclination
99.2546°
RAAN
193.4539°
Arg. of periapsis
46.0002°
True anomaly
314.12185°
Mean anomaly
317.0082°
Eccentric anomaly
315.57449°
Mean motion
3.66726 °/min
Orbital period
98.17 mins
BSTAR
0.00029719
Loading maneuver chart data...
Computing Atmospheric mass density...

Documentation

Showing up to 5 results
|